EW1392 Weather Reports


Display with metric or nautical units.
time (UTC)temp
F
wind
direction
speed
MPH
gust
MPH
rain 1hr
in
rain 24hr
in
rain mn
in
humidity
%
barometer
mb
20260507040045 58 227 0.0 2.0 0.00 0.00 0.00 63 1013.7
20260507034540 58 224 0.0 3.0 0.00 0.00 0.00 61 1013.6
20260507033037 59 296 0.0 6.0 0.00 0.00 0.00 60 1013.4
20260507031532 60 157 0.0 7.0 0.00 0.00 0.00 60 1013.1
20260507030033 60 80 0.0 3.0 0.00 0.00 0.00 59 1012.7
20260507024534 61 223 0.0 12.0 0.00 0.00 0.00 57 1012.5
20260507023031 62 49 0.0 4.0 0.00 0.00 0.00 56 1012.4
20260507021532 63 119 0.0 11.0 0.00 0.00 0.00 53 1012.3
20260507020034 64 204 0.0 7.0 0.00 0.00 0.00 52 1012.1
20260507014530 65 261 1.0 7.0 0.00 0.00 0.00 51 1012.1
20260507013036 66 190 0.0 3.0 0.00 0.00 0.00 50 1012.0
20260507011537 67 184 0.0 6.0 0.00 0.00 0.00 48 1012.1
20260507010029 67 204 0.0 7.0 0.00 0.00 0.00 49 1012.0
20260507004528 69 291 1.0 5.0 0.00 0.00 0.00 49 1012.0
20260507003029 69 222 1.0 6.0 0.00 0.00 0.00 48 1011.9
20260507001529 70 198 1.0 12.0 0.00 0.00 0.00 48 1011.6
20260507000027 70 267 2.0 7.0 0.00 0.00 0.00 48 1011.4
20260506234531 71 224 1.0 10.0 0.00 0.00 0.00 47 1011.3
20260506233026 71 38 0.0 10.0 0.00 0.00 0.00 47 1011.1
20260506231526 71 325 1.0 7.0 0.00 0.00 0.00 47 1011.0
20260506230025 71 174 3.0 9.0 0.00 0.00 0.00 46 1011.0
20260506224529 71 215 0.0 8.0 0.00 0.00 0.00 46 1011.1
20260506223024 72 226 1.0 6.0 0.00 0.00 0.00 44 1011.2
20260506221524 72 202 1.0 6.0 0.00 0.00 0.00 41 1011.2
20260506220024 72 302 2.0 6.0 0.00 0.00 0.00 39 1011.3
20260506214523 72 244 0.0 6.0 0.00 0.00 0.00 39 1011.4
20260506213023 72 250 1.0 10.0 0.00 0.00 0.00 42 1011.4
20260506211521 72 212 0.0 5.0 0.00 0.00 0.00 37 1011.5
20260506210024 72 292 0.0 7.0 0.00 0.00 0.00 39 1011.4
20260506204521 72 246 1.0 4.0 0.00 0.00 0.00 36 1011.2
20260506203025 73 275 0.0 5.0 0.00 0.00 0.00 37 1011.3
20260506201522 74 213 1.0 6.0 0.00 0.00 0.00 36 1011.3
20260506200023 74 77 0.0 5.0 0.00 0.00 0.00 37 1011.3
20260506194519 73 265 1.0 6.0 0.00 0.00 0.00 39 1011.2
20260506193017 74 217 0.0 8.0 0.00 0.00 0.00 37 1011.2
20260506191517 73 298 1.0 7.0 0.00 0.00 0.00 37 1011.3
20260506190016 73 333 0.0 10.0 0.00 0.00 0.00 41 1011.1
20260506184514 73 214 1.0 6.0 0.00 0.00 0.00 45 1011.2
20260506183014 73 218 0.0 5.0 0.00 0.00 0.00 47 1011.4
20260506181512 73 224 1.0 5.0 0.00 0.00 0.00 45 1011.4
20260506180010 73 239 1.0 5.0 0.00 0.00 0.00 47 1011.3
20260506174514 72 315 1.0 5.0 0.00 0.00 0.00 50 1011.3
20260506173006 71 248 0.0 5.0 0.00 0.00 0.00 50 1011.5
20260506171508 70 254 0.0 4.0 0.00 0.00 0.00 53 1011.6
20260506170104 69 279 0.0 4.0 0.00 0.00 0.00 55 1011.7
20260506164559 67 204 0.0 2.0 0.00 0.00 0.00 61 1011.8
20260506163109 66 276 0.0 3.0 0.00 0.00 0.00 63 1012.0
20260506161549 64 200 0.0 0.0 0.00 0.00 0.00 67 1012.0
20260506160044 60 200 0.0 0.0 0.00 0.00 0.00 79 1012.2
20260506154546 56 200 0.0 1.0 0.00 0.00 0.00 89 1012.2
20260506153037 51 200 0.0 0.0 0.00 0.00 0.00 94 1012.3
20260506151541 49 200 0.0 0.0 0.00 0.00 0.00 95 1012.3
20260506150036 46 200 0.0 0.0 0.00 0.00 0.00 96 1012.7
20260506144535 45 200 0.0 0.0 0.00 0.00 0.00 96 1012.8
20260506143034 44 200 0.0 0.0 0.00 0.00 0.00 96 1012.9
20260506141534 43 200 0.0 0.0 0.00 0.00 0.00 95 1012.7
20260506140034 43 200 0.0 0.0 0.00 0.00 0.00 95 1012.6
20260506134531 43 200 0.0 0.0 0.00 0.00 0.00 95 1012.7
20260506133030 43 200 0.0 0.0 0.00 0.00 0.00 95 1012.7
20260506131535 43 200 0.0 0.0 0.00 0.00 0.00 94 1012.6
20260506130028 43 200 0.0 0.0 0.00 0.00 0.00 94 1012.6
20260506124527 43 200 0.0 0.0 0.00 0.00 0.00 94 1012.5
20260506123026 43 200 0.0 0.0 0.00 0.00 0.00 94 1012.5
20260506121524 44 200 0.0 0.0 0.00 0.00 0.00 93 1012.3
20260506120023 44 200 0.0 0.0 0.00 0.00 0.00 92 1012.3
20260506114524 44 200 0.0 0.0 0.00 0.00 0.00 92 1012.2
20260506113020 45 200 0.0 0.0 0.00 0.00 0.00 92 1012.2
20260506111526 45 200 0.0 0.0 0.00 0.00 0.00 93 1012.1
20260506110016 45 200 0.0 0.0 0.00 0.00 0.00 91 1012.0
20260506104515 45 200 0.0 0.0 0.00 0.00 0.00 91 1011.9
20260506103011 46 200 0.0 0.0 0.00 0.00 0.00 91 1011.7
20260506101510 46 200 0.0 0.0 0.00 0.00 0.00 91 1011.7
20260506100008 47 200 0.0 0.0 0.00 0.00 0.00 90 1011.5
20260506094507 47 200 0.0 0.0 0.00 0.00 0.00 90 1011.5
20260506093004 48 200 0.0 0.0 0.00 0.00 0.00 89 1011.5
20260506091505 48 200 0.0 0.0 0.00 0.00 0.00 89 1011.5
20260506090000 48 200 0.0 0.0 0.00 0.00 0.00 88 1011.4
20260506084634 49 200 0.0 0.0 0.00 0.00 0.00 87 1011.4
20260506083059 49 200 0.0 0.0 0.00 0.00 0.00 87 1011.4
20260506081609 50 200 0.0 0.0 0.00 0.00 0.00 86 1011.4
20260506073047 51 200 0.0 0.0 0.00 0.00 0.00 84 1010.9
20260506071544 52 200 0.0 0.0 0.00 0.00 0.00 83 1010.8
20260506061543 55 200 0.0 0.0 0.00 0.00 0.00 78 1010.3
20260506050103 60 200 0.0 0.0 0.00 0.00 0.00 71 1009.8
20260506044542 61 200 0.0 0.0 0.00 0.00 0.00 69 1009.7
20260506043036 62 200 0.0 0.0 0.00 0.00 0.00 66 1009.4
20260506041551 63 200 0.0 0.0 0.00 0.00 0.00 63 1009.2